FENGYUN 1C DEB

Satellite information

Favourite Embed

Satellite Type and Status

DEBRISIN ORBIT

Key statistics

Satellite FENGYUN 1C DEB at a glance.

Uptime

9715

Days in orbit

Revolutions

≈ 14.2

Per day

Orbit

SSO

Sun Synchronous Orbit

Inclination

98.6

Latest

Satellite identification and parameters

Extended collection of information and parameters for FENGYUN 1C DEB.

Object identification

Identified? True

Debris? True

Object name: FENGYUN 1C DEB

International designator: 1999-025BJW

Object number (NORAD): 31192

Object ID (CCSDS): 31192

Country: PEOPLES REPUBLIC OF CHINA (PRC)

Current information (Y/N): Y

RCS size: SMALL

Orbital parameters

Period: 101.34 minutes

Inclination: 98.5533 deg

SMA: 7200.241 km

Apoapsis: 1009.073 km

Periapsis: 635.139 km

RAAN: 330.9004 deg

Eccentricy: 0.02596679

Argument of periapsis: 102.3272 deg

Mean anomaly: 260.7104 deg

Mean motion: 14.20961229 rev/day

Mean motion (dot): 0.00001238 rev/day2

B* drag term: 0.00042097732 1/REarth

Two-line elements (TLE)

Creation date: Dec. 13, 2025, 5:47 p.m.

Reference frame: TEME

Reference center: EARTH

Epoch: Dec. 13, 2025, 5:27 a.m. UTC

TLE line 0: 0 FENGYUN 1C DEB

TLE line 1: 1 31192U 99025BJW 25347.22748882 .00001238 00000-0 42098-3 0 9993

TLE line 2: 2 31192 98.5533 330.9004 0259668 102.3272 260.7104 14.20961229967506

Live tracking on map

Real-time ground track for satellite FENGYUN 1C DEB.

In-orbit conjunctions

A list of the most updated potential collisions computed for object FENGYUN 1C DEB.

Target Orbit TCA Probability of collision Miss distance Type
CZ-4C DEB LEO 2025-10-06 17:28:34 0.0001483796 117.0 (m) DEBRIS
FENGYUN 1C DEB SSO 2025-09-12 02:24:40 0.0001085173 472.0 (m) DEBRIS
FENGYUN 1C DEB SSO 2024-11-14 15:39:37 0.0004335905 65.0 (m) DEBRIS

Associated space launch

Chinese polar orbiting meteorological satellite

FENGYUN 1C DEB was lifted into orbit during the mission ‘Long March 4B | Feng Yun 1C’, on board a Long March 4B space rocket.

The launch took place on May 10, 1999, 1:33 a.m. from Launch Complex 7.

For more information about the launch, click the button.

Launch to space Long March 4B | Feng Yun 1C
Long March 4B | Feng Yun 1C

Agency: N/A

Status: Launch Successful

Launch date: May 10, 1999, 1:33 a.m. UTC

Rocket: Long March 4B

Launch pad: Launch Complex 7

Location: Taiyuan Satellite Launch Center, People's Republic of China

...

Latest news about this satellite

There are no fresh news available about this satellite. Check back as we update our databases every day.


Newsletter sign-up

Weekly statistics, charts and insights to help you stay on top of the space industry.